Time,TemperatureF,DewpointF,PressureIn,WindDirection,WindDirectionDegrees,WindSpeedMPH,WindSpeedGustMPH,Humidity,HourlyPrecipIn,Conditions,Clouds,dailyrainin,SoftwareType,DateUTC
2013-06-27 00:05:00,75.3,69.8,29.79,NNW,337,0.0,0.0,83,0.00,,,0.00,Wunderground v.1.15,2013-06-27 04:05:00,
2013-06-27 00:10:00,75.3,69.8,29.79,NNW,337,0.0,0.0,83,0.00,,,0.00,Wunderground v.1.15,2013-06-27 04:10:00,
2013-06-27 00:15:00,75.3,69.8,29.79,NNW,337,0.0,0.0,83,0.00,,,0.00,Wunderground v.1.15,2013-06-27 04:15:00,
2013-06-27 00:25:00,75.1,69.6,29.78,NNW,337,0.0,0.0,83,0.00,,,0.00,Wunderground v.1.15,2013-06-27 04:25:00,
2013-06-27 00:30:00,74.9,69.7,29.78,NNW,337,0.0,0.0,84,0.00,,,0.00,Wunderground v.1.15,2013-06-27 04:30:00,
2013-06-27 00:35:00,74.9,69.7,29.78,NNW,337,0.0,0.0,84,0.00,,,0.00,Wunderground v.1.15,2013-06-27 04:35:00,
2013-06-27 00:40:00,74.7,69.9,29.78,NNW,337,0.0,0.0,85,0.00,,,0.00,Wunderground v.1.15,2013-06-27 04:40:00,
2013-06-27 00:45:00,74.4,69.9,29.78,NNW,337,0.0,0.0,86,0.00,,,0.00,Wunderground v.1.15,2013-06-27 04:45:00,
2013-06-27 00:55:00,74.0,70.2,29.77,NNW,337,0.0,0.0,88,0.00,,,0.00,Wunderground v.1.15,2013-06-27 04:55:00,
2013-06-27 01:06:00,73.9,70.5,29.76,NNW,337,0.0,0.0,89,0.00,,,0.00,Wunderground v.1.15,2013-06-27 05:06:00,
2013-06-27 01:15:00,73.5,70.1,29.76,NNW,337,0.0,0.0,89,0.00,,,0.00,Wunderground v.1.15,2013-06-27 05:15:00,
2013-06-27 01:25:00,73.2,70.1,29.76,NNW,337,0.0,0.0,90,0.00,,,0.00,Wunderground v.1.15,2013-06-27 05:25:00,
2013-06-27 01:35:00,73.0,69.9,29.75,NNW,337,0.0,0.0,90,0.00,,,0.00,Wunderground v.1.15,2013-06-27 05:35:00,
2013-06-27 01:45:00,72.7,69.9,29.75,NNW,337,0.0,0.0,91,0.00,,,0.00,Wunderground v.1.15,2013-06-27 05:45:00,
2013-06-27 01:55:00,72.5,69.7,29.74,NNW,337,0.0,0.0,91,0.00,,,0.00,Wunderground v.1.15,2013-06-27 05:55:00,
2013-06-27 02:05:00,72.5,70.0,29.74,NNW,337,0.0,0.0,92,0.00,,,0.00,Wunderground v.1.15,2013-06-27 06:05:00,
2013-06-27 02:15:00,72.3,69.8,29.74,NNW,337,0.0,0.0,92,0.00,,,0.00,Wunderground v.1.15,2013-06-27 06:15:00,
2013-06-27 02:25:00,72.3,69.8,29.74,NNW,337,0.0,0.0,92,0.00,,,0.00,Wunderground v.1.15,2013-06-27 06:25:00,
2013-06-27 02:35:00,72.3,70.2,29.74,NNW,337,0.0,0.0,93,0.00,,,0.00,Wunderground v.1.15,2013-06-27 06:35:00,
2013-06-27 02:45:00,72.1,70.0,29.74,NNW,337,0.0,0.0,93,0.00,,,0.00,Wunderground v.1.15,2013-06-27 06:45:00,
2013-06-27 02:55:00,72.1,70.0,29.74,NNW,337,0.0,0.0,93,0.00,,,0.00,Wunderground v.1.15,2013-06-27 06:55:00,
2013-06-27 03:05:00,72.0,69.9,29.74,NNW,337,0.0,0.0,93,0.00,,,0.00,Wunderground v.1.15,2013-06-27 07:05:00,
2013-06-27 03:15:00,71.8,69.7,29.74,NNW,337,0.0,0.0,93,0.00,,,0.00,Wunderground v.1.15,2013-06-27 07:15:00,
2013-06-27 03:25:00,71.6,69.5,29.73,NNW,337,0.0,0.0,93,0.00,,,0.00,Wunderground v.1.15,2013-06-27 07:25:00,
2013-06-27 03:35:00,71.5,69.4,29.73,NNW,337,0.0,0.0,93,0.00,,,0.00,Wunderground v.1.15,2013-06-27 07:35:00,
2013-06-27 03:45:00,71.5,69.4,29.73,NNW,337,0.0,0.0,93,0.00,,,0.00,Wunderground v.1.15,2013-06-27 07:45:00,
2013-06-27 03:55:00,71.3,69.2,29.73,NNW,337,0.0,0.0,93,0.00,,,0.00,Wunderground v.1.15,2013-06-27 07:55:00,
2013-06-27 04:05:00,70.9,69.1,29.73,NNW,337,0.0,0.0,94,0.00,,,0.00,Wunderground v.1.15,2013-06-27 08:05:00,
2013-06-27 04:15:00,71.1,69.3,29.73,NNW,337,0.0,0.0,94,0.00,,,0.00,Wunderground v.1.15,2013-06-27 08:15:00,
2013-06-27 04:25:00,70.8,69.0,29.73,NNW,337,0.0,0.0,94,0.00,,,0.00,Wunderground v.1.15,2013-06-27 08:25:00,
2013-06-27 04:35:00,70.9,69.1,29.74,NNW,337,0.0,0.0,94,0.00,,,0.00,Wunderground v.1.15,2013-06-27 08:35:00,
2013-06-27 04:45:00,70.8,69.0,29.74,NNW,337,0.0,0.0,94,0.00,,,0.00,Wunderground v.1.15,2013-06-27 08:45:00,
2013-06-27 04:55:00,70.9,69.4,29.74,NNW,337,0.0,0.0,95,0.00,,,0.00,Wunderground v.1.15,2013-06-27 08:55:00,
2013-06-27 05:05:00,70.9,69.4,29.74,NNW,337,0.0,0.0,95,0.00,,,0.00,Wunderground v.1.15,2013-06-27 09:05:00,
2013-06-27 05:15:00,71.1,69.6,29.74,NNW,337,0.0,0.0,95,0.00,,,0.00,Wunderground v.1.15,2013-06-27 09:15:00,
2013-06-27 05:25:00,70.9,69.4,29.74,NNW,337,0.0,0.0,95,0.00,,,0.00,Wunderground v.1.15,2013-06-27 09:25:00,
2013-06-27 05:35:00,71.1,69.6,29.75,NNW,337,0.0,0.0,95,0.00,,,0.00,Wunderground v.1.15,2013-06-27 09:35:00,
2013-06-27 05:45:00,71.3,69.8,29.75,NNW,337,0.0,0.0,95,0.00,,,0.00,Wunderground v.1.15,2013-06-27 09:45:00,
2013-06-27 05:55:00,71.3,69.8,29.75,NNW,337,0.0,0.0,95,0.00,,,0.00,Wunderground v.1.15,2013-06-27 09:55:00,
2013-06-27 06:05:00,71.3,69.8,29.75,NNW,337,0.0,0.0,95,0.00,,,0.00,Wunderground v.1.15,2013-06-27 10:05:00,
2013-06-27 06:15:00,71.3,69.8,29.75,NNW,337,0.0,0.0,95,0.00,,,0.00,Wunderground v.1.15,2013-06-27 10:15:00,
2013-06-27 06:25:00,71.5,70.0,29.76,NNW,337,0.0,0.0,95,0.00,,,0.00,Wunderground v.1.15,2013-06-27 10:25:00,
2013-06-27 06:35:00,71.6,70.1,29.76,NNW,337,0.0,0.0,95,0.00,,,0.00,Wunderground v.1.15,2013-06-27 10:35:00,
2013-06-27 06:45:00,71.6,70.1,29.76,NNW,337,0.0,0.0,95,0.00,,,0.00,Wunderground v.1.15,2013-06-27 10:45:00,
2013-06-27 06:55:00,71.6,70.1,29.76,NNW,337,0.0,0.0,95,0.00,,,0.00,Wunderground v.1.15,2013-06-27 10:55:00,
2013-06-27 07:10:00,72.1,70.6,29.76,NNW,337,0.0,0.0,95,0.00,,,0.00,Wunderground v.1.15,2013-06-27 11:10:00,
2013-06-27 07:15:00,72.1,70.6,29.76,NNW,337,0.0,0.0,95,0.00,,,0.00,Wunderground v.1.15,2013-06-27 11:15:00,
2013-06-27 07:25:00,72.7,71.2,29.77,NNW,337,0.0,0.0,95,0.00,,,0.00,Wunderground v.1.15,2013-06-27 11:25:00,
2013-06-27 07:35:00,72.7,71.2,29.76,NNW,337,0.0,0.0,95,0.00,,,0.00,Wunderground v.1.15,2013-06-27 11:35:00,
2013-06-27 07:45:00,72.8,71.0,29.76,NNW,337,0.0,0.0,94,0.00,,,0.00,Wunderground v.1.15,2013-06-27 11:45:00,
2013-06-27 07:55:00,73.3,71.5,29.76,NNW,337,0.0,0.0,94,0.00,,,0.00,Wunderground v.1.15,2013-06-27 11:55:00,
2013-06-27 08:05:00,73.7,71.5,29.76,NNW,337,0.0,0.0,93,0.00,,,0.00,Wunderground v.1.15,2013-06-27 12:05:00,
2013-06-27 08:15:00,73.9,71.1,29.76,NNW,337,1.0,1.0,91,0.00,,,0.00,Wunderground v.1.15,2013-06-27 12:15:00,
2013-06-27 08:25:00,74.4,70.9,29.75,NNW,337,0.0,1.0,89,0.00,,,0.00,Wunderground v.1.15,2013-06-27 12:25:00,
2013-06-27 08:35:00,74.6,70.5,29.76,NNW,337,0.0,0.0,87,0.00,,,0.00,Wunderground v.1.15,2013-06-27 12:35:00,
2013-06-27 08:45:00,74.9,69.7,29.76,NNW,338,1.0,3.0,84,0.00,,,0.00,Wunderground v.1.15,2013-06-27 12:45:00,
2013-06-27 08:55:00,75.4,69.9,29.75,NNW,341,1.0,1.0,83,0.00,,,0.00,Wunderground v.1.15,2013-06-27 12:55:00,
2013-06-27 09:05:00,76.3,69.7,29.75,North,360,1.0,1.0,80,0.00,,,0.00,Wunderground v.1.15,2013-06-27 13:05:00,
2013-06-27 09:15:00,77.0,69.6,29.75,NNW,348,1.0,1.0,78,0.00,,,0.00,Wunderground v.1.15,2013-06-27 13:15:00,
2013-06-27 09:25:00,77.6,69.8,29.75,North,360,1.0,1.0,77,0.00,,,0.00,Wunderground v.1.15,2013-06-27 13:25:00,
2013-06-27 09:35:00,78.1,69.9,29.75,North,360,1.0,2.0,76,0.00,,,0.00,Wunderground v.1.15,2013-06-27 13:35:00,
2013-06-27 09:45:00,79.0,70.4,29.75,North,360,1.0,1.0,75,0.00,,,0.00,Wunderground v.1.15,2013-06-27 13:45:00,
2013-06-27 09:50:00,79.2,70.2,29.74,NNE,15,1.0,1.0,74,0.00,,,0.00,Wunderground v.1.15,2013-06-27 13:50:00,
2013-06-27 10:00:00,79.4,69.6,29.74,NE,49,1.0,1.0,72,0.00,,,0.00,Wunderground v.1.15,2013-06-27 14:00:00,
2013-06-27 10:05:00,79.6,69.8,29.74,East,94,1.0,1.0,72,0.00,,,0.00,Wunderground v.1.15,2013-06-27 14:05:00,
2013-06-27 10:15:00,80.5,71.0,29.74,NNW,330,1.0,1.0,73,0.00,,,0.00,Wunderground v.1.15,2013-06-27 14:15:00,
2013-06-27 10:25:00,81.1,70.0,29.74,North,355,2.0,2.0,69,0.00,,,0.00,Wunderground v.1.15,2013-06-27 14:25:00,
2013-06-27 10:35:00,81.4,70.2,29.73,NE,49,1.0,1.0,69,0.00,,,0.00,Wunderground v.1.15,2013-06-27 14:35:00,
2013-06-27 10:45:00,81.2,70.1,29.73,NE,38,1.0,1.0,69,0.00,,,0.00,Wunderground v.1.15,2013-06-27 14:45:00,
2013-06-27 10:55:00,82.4,72.0,29.73,NNE,32,1.0,1.0,71,0.00,,,0.00,Wunderground v.1.15,2013-06-27 14:55:00,
2013-06-27 11:05:00,83.4,70.8,29.73,East,83,1.0,1.0,66,0.00,,,0.00,Wunderground v.1.15,2013-06-27 15:05:00,
2013-06-27 11:15:00,83.6,71.0,29.73,East,83,0.0,1.0,66,0.00,,,0.00,Wunderground v.1.15,2013-06-27 15:15:00,
2013-06-27 11:25:00,83.4,69.9,29.73,NNE,29,1.0,2.0,64,0.00,,,0.00,Wunderground v.1.15,2013-06-27 15:25:00,
2013-06-27 11:35:00,83.4,71.7,29.72,SSW,192,1.0,1.0,68,0.00,,,0.00,Wunderground v.1.15,2013-06-27 15:35:00,
2013-06-27 11:45:00,83.0,73.4,29.72,SSE,161,2.0,2.0,73,0.00,,,0.00,Wunderground v.1.15,2013-06-27 15:45:00,
2013-06-27 11:55:00,84.3,70.3,29.72,SE,136,2.0,2.0,63,0.00,,,0.00,Wunderground v.1.15,2013-06-27 15:55:00,
2013-06-27 12:06:00,84.3,70.8,29.72,SSE,149,1.0,2.0,64,0.00,,,0.00,Wunderground v.1.15,2013-06-27 16:06:00,
2013-06-27 12:15:00,84.3,70.3,29.72,NE,42,1.0,1.0,63,0.00,,,0.00,Wunderground v.1.15,2013-06-27 16:15:00,
2013-06-27 12:20:00,85.1,72.0,29.72,NE,53,1.0,2.0,65,0.00,,,0.00,Wunderground v.1.15,2013-06-27 16:20:00,
2013-06-27 12:25:00,85.1,71.1,29.72,SSW,202,1.0,2.0,63,0.00,,,0.00,Wunderground v.1.15,2013-06-27 16:25:00,
2013-06-27 12:35:00,84.9,71.8,29.71,SSE,161,1.0,1.0,65,0.00,,,0.00,Wunderground v.1.15,2013-06-27 16:35:00,
2013-06-27 12:45:00,84.7,71.2,29.71,SSW,205,1.0,1.0,64,0.00,,,0.00,Wunderground v.1.15,2013-06-27 16:45:00,
2013-06-27 12:55:00,85.1,70.6,29.71,SSE,163,1.0,1.0,62,0.00,,,0.00,Wunderground v.1.15,2013-06-27 16:55:00,
2013-06-27 13:05:00,85.1,70.6,29.70,NE,56,1.0,2.0,62,0.00,,,0.00,Wunderground v.1.15,2013-06-27 17:05:00,
2013-06-27 13:15:00,85.3,69.8,29.70,NNE,32,1.0,2.0,60,0.00,,,0.00,Wunderground v.1.15,2013-06-27 17:15:00,
2013-06-27 13:25:00,84.9,70.9,29.69,West,269,1.0,1.0,63,0.00,,,0.00,Wunderground v.1.15,2013-06-27 17:25:00,
2013-06-27 13:35:00,85.3,69.3,29.69,WSW,248,2.0,2.0,59,0.00,,,0.00,Wunderground v.1.15,2013-06-27 17:35:00,
2013-06-27 13:45:00,85.7,71.2,29.69,SSW,195,2.0,3.0,62,0.00,,,0.00,Wunderground v.1.15,2013-06-27 17:45:00,
2013-06-27 13:55:00,84.3,70.8,29.69,NE,42,2.0,2.0,64,0.00,,,0.00,Wunderground v.1.15,2013-06-27 17:55:00,
2013-06-27 14:05:00,83.0,71.8,29.69,South,175,1.0,2.0,69,0.00,,,0.00,Wunderground v.1.15,2013-06-27 18:05:00,
2013-06-27 14:15:00,81.8,70.6,29.69,South,183,2.0,3.0,69,0.00,,,0.00,Wunderground v.1.15,2013-06-27 18:15:00,
2013-06-27 14:25:00,81.1,70.8,29.69,South,188,2.0,2.0,71,0.00,,,0.00,Wunderground v.1.15,2013-06-27 18:25:00,
2013-06-27 14:35:00,81.2,71.7,29.69,ENE,69,2.0,2.0,73,0.00,,,0.00,Wunderground v.1.15,2013-06-27 18:35:00,
2013-06-27 14:45:00,81.4,71.9,29.69,ENE,65,2.0,3.0,73,0.00,,,0.00,Wunderground v.1.15,2013-06-27 18:45:00,
2013-06-27 14:55:00,81.6,72.1,29.69,SSE,167,2.0,3.0,73,0.00,,,0.00,Wunderground v.1.15,2013-06-27 18:55:00,
2013-06-27 15:05:00,81.8,72.3,29.68,East,93,1.0,4.0,73,0.00,,,0.00,Wunderground v.1.15,2013-06-27 19:05:00,
2013-06-27 15:15:00,82.0,72.1,29.68,South,178,1.0,1.0,72,0.00,,,0.00,Wunderground v.1.15,2013-06-27 19:15:00,
2013-06-27 15:25:00,81.8,72.7,29.68,SW,219,2.0,2.0,74,0.00,,,0.00,Wunderground v.1.15,2013-06-27 19:25:00,
2013-06-27 15:35:00,81.8,72.7,29.68,SSW,209,2.0,2.0,74,0.00,,,0.00,Wunderground v.1.15,2013-06-27 19:35:00,
2013-06-27 15:45:00,81.6,72.5,29.68,NNW,346,1.0,2.0,74,0.00,,,0.00,Wunderground v.1.15,2013-06-27 19:45:00,
2013-06-27 15:55:00,81.8,72.7,29.67,NNW,327,1.0,2.0,74,0.00,,,0.00,Wunderground v.1.15,2013-06-27 19:55:00,
2013-06-27 16:05:00,82.2,71.9,29.66,SW,233,2.0,2.0,71,0.00,,,0.00,Wunderground v.1.15,2013-06-27 20:05:00,
2013-06-27 16:15:00,82.0,71.7,29.66,SW,232,2.0,3.0,71,0.00,,,0.00,Wunderground v.1.15,2013-06-27 20:15:00,
2013-06-27 16:25:00,81.4,71.1,29.66,SW,229,2.0,2.0,71,0.00,,,0.00,Wunderground v.1.15,2013-06-27 20:25:00,
2013-06-27 16:35:00,81.4,71.5,29.66,ESE,108,2.0,3.0,72,0.00,,,0.00,Wunderground v.1.15,2013-06-27 20:35:00,
2013-06-27 16:45:00,81.2,71.3,29.66,SSW,208,2.0,5.0,72,0.00,,,0.00,Wunderground v.1.15,2013-06-27 20:45:00,
2013-06-27 16:55:00,81.2,72.1,29.65,SSW,211,2.0,2.0,74,0.00,,,0.00,Wunderground v.1.15,2013-06-27 20:55:00,
2013-06-27 17:05:00,80.9,71.4,29.65,South,184,2.0,2.0,73,0.00,,,0.00,Wunderground v.1.15,2013-06-27 21:05:00,
2013-06-27 17:15:00,81.1,71.2,29.65,SE,132,2.0,2.0,72,0.00,,,0.00,Wunderground v.1.15,2013-06-27 21:15:00,
2013-06-27 17:30:00,80.5,70.2,29.63,SSE,160,2.0,2.0,71,0.00,,,0.00,Wunderground v.1.15,2013-06-27 21:30:00,
2013-06-27 17:40:00,80.3,69.6,29.63,SE,128,2.0,2.0,70,0.00,,,0.00,Wunderground v.1.15,2013-06-27 21:40:00,
2013-06-27 17:45:00,80.3,69.6,29.63,South,184,2.0,2.0,70,0.00,,,0.00,Wunderground v.1.15,2013-06-27 21:45:00,
2013-06-27 18:05:00,79.6,69.8,29.63,SSE,165,2.0,2.0,72,0.00,,,0.00,Wunderground v.1.15,2013-06-27 22:05:00,
2013-06-27 18:15:00,79.6,69.8,29.63,South,171,2.0,2.0,72,0.00,,,0.00,Wunderground v.1.15,2013-06-27 22:15:00,
2013-06-27 18:25:00,79.2,69.8,29.63,SW,231,2.0,3.0,73,0.00,,,0.00,Wunderground v.1.15,2013-06-27 22:25:00,
2013-06-27 18:35:00,78.6,69.6,29.64,East,98,1.0,2.0,74,0.00,,,0.00,Wunderground v.1.15,2013-06-27 22:35:00,
2013-06-27 18:45:00,78.3,70.1,29.64,South,182,1.0,1.0,76,0.00,,,0.00,Wunderground v.1.15,2013-06-27 22:45:00,
2013-06-27 18:55:00,77.7,70.3,29.64,SW,225,1.0,5.0,78,0.00,,,0.00,Wunderground v.1.15,2013-06-27 22:55:00,
2013-06-27 19:05:00,77.4,70.0,29.63,SSW,207,2.0,2.0,78,0.00,,,0.00,Wunderground v.1.15,2013-06-27 23:05:00,
2013-06-27 19:15:00,77.2,69.8,29.63,South,183,2.0,3.0,78,0.00,,,0.00,Wunderground v.1.15,2013-06-27 23:15:00,
2013-06-27 19:25:00,77.2,69.8,29.63,SSW,213,1.0,2.0,78,0.00,,,0.00,Wunderground v.1.15,2013-06-27 23:25:00,
2013-06-27 19:40:00,76.7,70.1,29.63,SSW,199,1.0,1.0,80,0.00,,,0.00,Wunderground v.1.15,2013-06-27 23:40:00,
2013-06-27 19:45:00,76.5,69.9,29.63,SSE,160,2.0,2.0,80,0.00,,,0.00,Wunderground v.1.15,2013-06-27 23:45:00,
2013-06-27 19:55:00,76.3,69.7,29.62,SSE,150,1.0,3.0,80,0.00,,,0.00,Wunderground v.1.15,2013-06-27 23:55:00,
2013-06-27 20:10:00,76.1,69.5,29.61,ESE,121,1.0,1.0,80,0.00,,,0.00,Wunderground v.1.15,2013-06-28 00:10:00,
2013-06-27 20:15:00,76.1,69.1,29.61,SW,224,1.0,1.0,79,0.00,,,0.00,Wunderground v.1.15,2013-06-28 00:15:00,
2013-06-27 20:25:00,76.1,69.5,29.60,SSW,201,1.0,1.0,80,0.00,,,0.00,Wunderground v.1.15,2013-06-28 00:25:00,
2013-06-27 20:40:00,75.8,69.2,29.60,ESE,106,1.0,1.0,80,0.00,,,0.00,Wunderground v.1.15,2013-06-28 00:40:00,
2013-06-27 20:45:00,75.6,69.4,29.60,NE,53,1.0,1.0,81,0.00,,,0.00,Wunderground v.1.15,2013-06-28 00:45:00,
2013-06-27 21:00:00,75.4,69.2,29.58,East,86,2.0,3.0,81,0.00,,,0.00,Wunderground v.1.15,2013-06-28 01:00:00,
2013-06-27 21:05:00,75.4,69.2,29.56,SE,131,2.0,3.0,81,0.00,,,0.00,Wunderground v.1.15,2013-06-28 01:05:00,
2013-06-27 21:15:00,75.1,69.9,29.56,SW,236,1.0,2.0,84,0.28,,,0.03,Wunderground v.1.15,2013-06-28 01:15:00,
2013-06-27 21:25:00,74.0,69.9,29.56,West,273,1.0,1.0,87,3.00,,,0.18,Wunderground v.1.15,2013-06-28 01:25:00,
2013-06-27 21:35:00,73.3,70.2,29.56,South,169,2.0,3.0,90,0.27,,,0.30,Wunderground v.1.15,2013-06-28 01:35:00,
2013-06-27 21:45:00,73.2,70.4,29.56,ESE,104,1.0,2.0,91,0.42,,,0.36,Wunderground v.1.15,2013-06-28 01:45:00,
2013-06-27 22:00:00,73.5,71.4,29.55,SSE,147,2.0,2.0,93,0.11,,,0.39,Wunderground v.1.15,2013-06-28 02:00:00,
2013-06-27 22:05:00,73.5,71.4,29.54,SSW,192,2.0,2.0,93,0.16,,,0.40,Wunderground v.1.15,2013-06-28 02:05:00,
2013-06-27 22:15:00,73.7,71.5,29.54,South,182,2.0,2.0,93,0.30,,,0.44,Wunderground v.1.15,2013-06-28 02:15:00,
2013-06-27 22:35:00,74.2,72.4,29.52,East,92,3.0,4.0,94,0.07,,,0.50,Wunderground v.1.15,2013-06-28 02:35:00,
2013-06-27 22:50:00,73.9,72.1,29.52,SSW,199,3.0,3.0,94,0.00,,,0.50,Wunderground v.1.15,2013-06-28 02:50:00,
2013-06-27 22:55:00,73.9,72.1,29.52,WSW,238,2.0,4.0,94,0.00,,,0.50,Wunderground v.1.15,2013-06-28 02:55:00,
2013-06-27 23:05:00,73.7,72.2,29.52,SSW,192,3.0,3.0,95,0.00,,,0.50,Wunderground v.1.15,2013-06-28 03:05:00,
2013-06-27 23:20:00,73.7,72.2,29.52,SW,214,3.0,3.0,95,0.00,,,0.50,Wunderground v.1.15,2013-06-28 03:20:00,
2013-06-27 23:25:00,73.7,72.2,29.52,SSW,205,3.0,3.0,95,0.00,,,0.50,Wunderground v.1.15,2013-06-28 03:25:00,
2013-06-27 23:35:00,73.7,72.2,29.52,SW,235,2.0,2.0,95,0.10,,,0.52,Wunderground v.1.15,2013-06-28 03:35:00,
2013-06-27 23:45:00,73.7,72.2,29.52,SW,226,2.0,5.0,95,0.11,,,0.54,Wunderground v.1.15,2013-06-28 03:45:00,
2013-06-27 23:55:00,73.7,72.2,29.51,WSW,239,2.0,3.0,95,0.17,,,0.56,Wunderground v.1.15,2013-06-28 03:55:00,